| time (UTC) | temp F | wind direction | speed MPH | gust MPH | rain 1hr in | rain 24hr in | rain mn in | humidity % | barometer mb |
| 20260505030322 | 55 | 274 | 4.0 | 11.0 | 0.00 | 0.00 | 0.00 | 79 | 1012.0 |
| 20260505025323 | 56 | 269 | 4.0 | 13.0 | 0.00 | 0.00 | 0.00 | 78 | 1012.0 |
| 20260505024823 | 56 | 226 | 4.0 | 13.0 | 0.00 | 0.00 | 0.00 | 77 | 1011.9 |
| 20260505024328 | 58 | 223 | 4.0 | 12.0 | 0.00 | 0.00 | 0.00 | 76 | 1011.7 |
| 20260505024323 | 57 | 213 | 4.0 | 12.0 | 0.00 | 0.00 | 0.00 | 77 | 1011.8 |
| 20260505023940 | 59 | 239 | 5.0 | 15.0 | 0.00 | 0.00 | 0.00 | 74 | 1011.6 |
| 20260505023936 | 58 | 268 | 4.0 | 10.0 | 0.00 | 0.00 | 0.00 | 75 | 1011.7 |
| 20260505022823 | 58 | 286 | 5.0 | 14.0 | 0.00 | 0.00 | 0.00 | 75 | 1011.7 |
| 20260505022437 | 59 | 189 | 4.0 | 15.0 | 0.00 | 0.00 | 0.00 | 73 | 1011.6 |
| 20260505021322 | 59 | 285 | 5.0 | 13.0 | 0.00 | 0.00 | 0.00 | 73 | 1011.5 |
| 20260505020820 | 60 | 209 | 5.0 | 13.0 | 0.00 | 0.00 | 0.00 | 72 | 1011.6 |
| 20260505020320 | 60 | 246 | 4.0 | 13.0 | 0.00 | 0.00 | 0.00 | 71 | 1011.6 |
| 20260505015820 | 60 | 246 | 5.0 | 13.0 | 0.00 | 0.00 | 0.00 | 71 | 1011.6 |
| 20260505015321 | 61 | 254 | 4.0 | 12.0 | 0.00 | 0.00 | 0.00 | 71 | 1011.6 |
| 20260505014819 | 61 | 269 | 4.0 | 12.0 | 0.00 | 0.00 | 0.00 | 71 | 1011.6 |
| 20260505014319 | 61 | 277 | 4.0 | 13.0 | 0.00 | 0.00 | 0.00 | 70 | 1011.6 |
| 20260505013818 | 62 | 264 | 5.0 | 13.0 | 0.00 | 0.00 | 0.00 | 69 | 1011.5 |
| 20260505013323 | 62 | 226 | 5.0 | 11.0 | 0.00 | 0.00 | 0.00 | 70 | 1011.5 |
| 20260505013319 | 62 | 259 | 5.0 | 12.0 | 0.00 | 0.00 | 0.00 | 70 | 1011.6 |
| 20260505012323 | 63 | 256 | 5.0 | 12.0 | 0.00 | 0.00 | 0.00 | 68 | 1011.5 |
| 20260505012319 | 63 | 234 | 5.0 | 12.0 | 0.00 | 0.00 | 0.00 | 68 | 1011.6 |
| 20260505011319 | 64 | 248 | 4.0 | 12.0 | 0.00 | 0.00 | 0.00 | 67 | 1011.6 |
| 20260505010819 | 64 | 282 | 4.0 | 12.0 | 0.00 | 0.00 | 0.00 | 68 | 1011.5 |
| 20260505010320 | 64 | 259 | 4.0 | 12.0 | 0.00 | 0.00 | 0.00 | 67 | 1011.6 |
| 20260505005818 | 64 | 270 | 5.0 | 12.0 | 0.00 | 0.00 | 0.00 | 66 | 1011.5 |
| 20260505005319 | 65 | 263 | 4.0 | 11.0 | 0.00 | 0.00 | 0.00 | 66 | 1011.6 |
| 20260505004819 | 65 | 284 | 5.0 | 13.0 | 0.00 | 0.00 | 0.00 | 67 | 1011.5 |
| 20260505004320 | 65 | 290 | 4.0 | 13.0 | 0.00 | 0.00 | 0.00 | 67 | 1011.5 |
| 20260505003818 | 66 | 288 | 4.0 | 10.0 | 0.00 | 0.00 | 0.00 | 68 | 1011.4 |
| 20260505003319 | 66 | 299 | 4.0 | 9.0 | 0.00 | 0.00 | 0.00 | 67 | 1011.4 |
| 20260505002816 | 66 | 239 | 4.0 | 12.0 | 0.00 | 0.00 | 0.00 | 68 | 1011.4 |
| 20260505002316 | 66 | 314 | 4.0 | 12.0 | 0.00 | 0.00 | 0.00 | 67 | 1011.5 |
| 20260505001814 | 66 | 257 | 4.0 | 11.0 | 0.00 | 0.00 | 0.00 | 68 | 1011.4 |
| 20260505001314 | 66 | 213 | 5.0 | 14.0 | 0.00 | 0.00 | 0.00 | 67 | 1011.4 |
| 20260505000814 | 66 | 186 | 6.0 | 14.0 | 0.00 | 0.00 | 0.00 | 65 | 1011.5 |
| 20260505000312 | 67 | 257 | 6.0 | 13.0 | 0.00 | 0.00 | 0.00 | 65 | 1011.6 |
| 20260504235815 | 67 | 282 | 5.0 | 13.0 | 0.00 | 0.00 | 0.00 | 64 | 1011.6 |
| 20260504235811 | 67 | 290 | 6.0 | 11.0 | 0.00 | 0.00 | 0.00 | 64 | 1011.6 |
| 20260504234810 | 67 | 194 | 6.0 | 13.0 | 0.00 | 0.00 | 0.00 | 66 | 1011.6 |
| 20260504234309 | 68 | 257 | 5.0 | 13.0 | 0.00 | 0.00 | 0.00 | 64 | 1011.6 |
| 20260504233810 | 68 | 243 | 6.0 | 13.0 | 0.00 | 0.00 | 0.00 | 65 | 1011.6 |
| 20260504233309 | 67 | 218 | 7.0 | 14.0 | 0.00 | 0.00 | 0.00 | 64 | 1011.6 |
| 20260504232808 | 68 | 207 | 6.0 | 14.0 | 0.00 | 0.00 | 0.00 | 63 | 1011.6 |
| 20260504232309 | 69 | 277 | 5.0 | 12.0 | 0.00 | 0.00 | 0.00 | 64 | 1011.6 |
| 20260504231808 | 69 | 231 | 4.0 | 11.0 | 0.00 | 0.00 | 0.00 | 64 | 1011.6 |
| 20260504231308 | 69 | 264 | 5.0 | 12.0 | 0.00 | 0.00 | 0.00 | 64 | 1011.6 |
| 20260504230808 | 68 | 227 | 6.0 | 14.0 | 0.00 | 0.00 | 0.00 | 66 | 1011.7 |
| 20260504230308 | 68 | 225 | 6.0 | 14.0 | 0.00 | 0.00 | 0.00 | 64 | 1011.7 |
| 20260504225809 | 69 | 229 | 5.0 | 12.0 | 0.00 | 0.00 | 0.00 | 64 | 1011.7 |
| 20260504225314 | 69 | 293 | 5.0 | 11.0 | 0.00 | 0.00 | 0.00 | 65 | 1011.7 |
| 20260504225308 | 69 | 251 | 4.0 | 10.0 | 0.00 | 0.00 | 0.00 | 65 | 1011.7 |
| 20260504224808 | 69 | 283 | 4.0 | 10.0 | 0.00 | 0.00 | 0.00 | 66 | 1011.7 |
| 20260504223810 | 69 | 230 | 5.0 | 13.0 | 0.00 | 0.00 | 0.00 | 65 | 1011.8 |
| 20260504223806 | 69 | 248 | 5.0 | 11.0 | 0.00 | 0.00 | 0.00 | 68 | 1011.8 |
| 20260504222812 | 69 | 252 | 4.0 | 11.0 | 0.00 | 0.00 | 0.00 | 64 | 1011.8 |
| 20260504222807 | 69 | 241 | 5.0 | 13.0 | 0.00 | 0.00 | 0.00 | 64 | 1011.8 |
| 20260504221806 | 69 | 196 | 4.0 | 10.0 | 0.00 | 0.00 | 0.00 | 64 | 1011.8 |
| 20260504221307 | 69 | 205 | 5.0 | 10.0 | 0.00 | 0.00 | 0.00 | 66 | 1011.9 |
| 20260504220806 | 69 | 238 | 6.0 | 11.0 | 0.00 | 0.00 | 0.00 | 63 | 1011.9 |
| 20260504220310 | 69 | 220 | 5.0 | 11.0 | 0.00 | 0.00 | 0.00 | 64 | 1012.0 |
| 20260504220305 | 69 | 226 | 4.0 | 11.0 | 0.00 | 0.00 | 0.00 | 67 | 1012.0 |
| 20260504215304 | 69 | 267 | 4.0 | 10.0 | 0.00 | 0.00 | 0.00 | 67 | 1012.0 |
| 20260504214805 | 69 | 259 | 5.0 | 11.0 | 0.00 | 0.00 | 0.00 | 66 | 1012.0 |
| 20260504214305 | 69 | 176 | 6.0 | 12.0 | 0.00 | 0.00 | 0.00 | 64 | 1012.1 |
| 20260504213809 | 69 | 286 | 4.0 | 12.0 | 0.00 | 0.00 | 0.00 | 64 | 1012.2 |
| 20260504213805 | 69 | 222 | 5.0 | 12.0 | 0.00 | 0.00 | 0.00 | 63 | 1012.2 |
| 20260504212804 | 69 | 216 | 3.0 | 10.0 | 0.00 | 0.00 | 0.00 | 68 | 1012.3 |
| 20260504212309 | 69 | 287 | 5.0 | 13.0 | 0.00 | 0.00 | 0.00 | 66 | 1012.4 |
| 20260504212304 | 69 | 223 | 4.0 | 9.0 | 0.00 | 0.00 | 0.00 | 67 | 1012.2 |
| 20260504211803 | 69 | 244 | 4.0 | 9.0 | 0.00 | 0.00 | 0.00 | 69 | 1012.3 |
| 20260504211302 | 69 | 234 | 5.0 | 13.0 | 0.00 | 0.00 | 0.00 | 64 | 1012.3 |
| 20260504210302 | 70 | 285 | 4.0 | 10.0 | 0.00 | 0.00 | 0.00 | 66 | 1012.4 |
| 20260504205806 | 70 | 262 | 3.0 | 8.0 | 0.00 | 0.00 | 0.00 | 66 | 1012.5 |
| 20260504205802 | 69 | 273 | 4.0 | 10.0 | 0.00 | 0.00 | 0.00 | 68 | 1012.5 |
| 20260504204808 | 70 | 282 | 3.0 | 10.0 | 0.00 | 0.00 | 0.00 | 65 | 1012.7 |
| 20260504204802 | 70 | 265 | 3.0 | 8.0 | 0.00 | 0.00 | 0.00 | 65 | 1012.6 |
| 20260504203801 | 69 | 215 | 3.0 | 10.0 | 0.00 | 0.00 | 0.00 | 67 | 1012.7 |
| 20260504203307 | 69 | 229 | 3.0 | 10.0 | 0.00 | 0.00 | 0.00 | 62 | 1012.7 |
| 20260504203303 | 69 | 201 | 4.0 | 10.0 | 0.00 | 0.00 | 0.00 | 65 | 1012.7 |
| 20260504202915 | 69 | 293 | 3.0 | 9.0 | 0.00 | 0.00 | 0.00 | 65 | 1012.7 |
| 20260504201802 | 69 | 235 | 3.0 | 9.0 | 0.00 | 0.00 | 0.00 | 68 | 1012.7 |
| 20260504201303 | 69 | 257 | 3.0 | 9.0 | 0.00 | 0.00 | 0.00 | 66 | 1012.8 |
| 20260504200803 | 69 | 212 | 3.0 | 9.0 | 0.00 | 0.00 | 0.00 | 62 | 1012.7 |
| 20260504200259 | 68 | 254 | 2.0 | 6.0 | 0.00 | 0.00 | 0.00 | 68 | 1012.8 |
| 20260504195759 | 68 | 302 | 2.0 | 5.0 | 0.00 | 0.00 | 0.00 | 64 | 1012.8 |
| 20260504195305 | 68 | 232 | 2.0 | 5.0 | 0.00 | 0.00 | 0.00 | 63 | 1012.8 |
| 20260504195300 | 68 | 236 | 2.0 | 5.0 | 0.00 | 0.00 | 0.00 | 63 | 1012.8 |
| 20260504194300 | 68 | 253 | 2.0 | 5.0 | 0.00 | 0.00 | 0.00 | 72 | 1012.9 |
| 20260504193800 | 68 | 202 | 2.0 | 7.0 | 0.00 | 0.00 | 0.00 | 64 | 1012.9 |
| 20260504193259 | 68 | 304 | 1.0 | 7.0 | 0.00 | 0.00 | 0.00 | 69 | 1012.9 |
| 20260504192800 | 67 | 311 | 2.0 | 7.0 | 0.00 | 0.00 | 0.00 | 63 | 1012.9 |
| 20260504192300 | 67 | 288 | 2.0 | 7.0 | 0.00 | 0.00 | 0.00 | 67 | 1012.9 |
| 20260504191759 | 67 | 260 | 1.0 | 7.0 | 0.00 | 0.00 | 0.00 | 66 | 1012.9 |
| 20260504191259 | 67 | 218 | 2.0 | 7.0 | 0.00 | 0.00 | 0.00 | 66 | 1012.9 |
| 20260504190759 | 67 | 252 | 2.0 | 6.0 | 0.00 | 0.00 | 0.00 | 67 | 1013.1 |
| 20260504190304 | 66 | 187 | 2.0 | 5.0 | 0.00 | 0.00 | 0.00 | 69 | 1013.2 |
| 20260504190300 | 66 | 218 | 2.0 | 6.0 | 0.00 | 0.00 | 0.00 | 67 | 1013.1 |
| 20260504185300 | 66 | 158 | 2.0 | 5.0 | 0.00 | 0.00 | 0.00 | 70 | 1013.2 |
| 20260504184800 | 66 | 281 | 2.0 | 5.0 | 0.00 | 0.00 | 0.00 | 70 | 1013.3 |
| 20260504184301 | 66 | 215 | 2.0 | 5.0 | 0.00 | 0.00 | 0.00 | 70 | 1013.3 |
| 20260504183800 | 66 | 158 | 2.0 | 6.0 | 0.00 | 0.00 | 0.00 | 72 | 1013.3 |
| 20260504183300 | 65 | 111 | 3.0 | 7.0 | 0.00 | 0.00 | 0.00 | 73 | 1013.4 |
| 20260504182757 | 65 | 177 | 2.0 | 7.0 | 0.00 | 0.00 | 0.00 | 72 | 1013.3 |
| 20260504182257 | 64 | 166 | 2.0 | 5.0 | 0.00 | 0.00 | 0.00 | 73 | 1013.3 |
| 20260504181758 | 64 | 169 | 2.0 | 6.0 | 0.00 | 0.00 | 0.00 | 72 | 1013.3 |
| 20260504181257 | 63 | 198 | 2.0 | 6.0 | 0.00 | 0.00 | 0.00 | 72 | 1013.3 |
| 20260504180758 | 63 | 163 | 2.0 | 6.0 | 0.00 | 0.00 | 0.00 | 72 | 1013.2 |
| 20260504180303 | 62 | 179 | 3.0 | 8.0 | 0.00 | 0.00 | 0.00 | 73 | 1013.3 |
| 20260504180259 | 63 | 232 | 2.0 | 4.0 | 0.00 | 0.00 | 0.00 | 73 | 1013.3 |
| 20260504175259 | 62 | 225 | 3.0 | 8.0 | 0.00 | 0.00 | 0.00 | 75 | 1013.2 |
| 20260504174757 | 62 | 180 | 3.0 | 6.0 | 0.00 | 0.00 | 0.00 | 75 | 1013.3 |
| 20260504174258 | 62 | 211 | 3.0 | 7.0 | 0.00 | 0.00 | 0.00 | 77 | 1013.4 |
| 20260504173803 | 61 | 196 | 2.0 | 7.0 | 0.00 | 0.00 | 0.00 | 74 | 1013.4 |
| 20260504173759 | 61 | 220 | 3.0 | 7.0 | 0.00 | 0.00 | 0.00 | 74 | 1013.3 |
| 20260504172802 | 60 | 209 | 2.0 | 6.0 | 0.00 | 0.00 | 0.00 | 76 | 1013.5 |
| 20260504172758 | 61 | 230 | 2.0 | 5.0 | 0.00 | 0.00 | 0.00 | 73 | 1013.4 |
| 20260504171803 | 60 | 215 | 2.0 | 6.0 | 0.00 | 0.00 | 0.00 | 76 | 1013.5 |
| 20260504171757 | 60 | 175 | 2.0 | 6.0 | 0.00 | 0.00 | 0.00 | 76 | 1013.5 |
| 20260504171411 | 60 | 157 | 3.0 | 6.0 | 0.00 | 0.00 | 0.00 | 77 | 1013.5 |
| 20260504170257 | 59 | 190 | 3.0 | 6.0 | 0.00 | 0.00 | 0.00 | 77 | 1013.5 |
| 20260504160251 | 57 | 248 | 4.0 | 8.0 | 0.00 | 0.00 | 0.00 | 82 | 1013.4 |
| 20260504150745 | 55 | 234 | 4.0 | 12.0 | 0.00 | 0.00 | 0.00 | 84 | 1013.1 |
| 20260504150245 | 55 | 248 | 4.0 | 12.0 | 0.00 | 0.00 | 0.00 | 84 | 1013.1 |
| 20260504141246 | 54 | 246 | 4.0 | 10.0 | 0.00 | 0.00 | 0.00 | 86 | 1012.5 |
| 20260504141241 | 54 | 232 | 3.0 | 10.0 | 0.00 | 0.00 | 0.00 | 86 | 1012.6 |
| 20260504140242 | 54 | 319 | 3.0 | 9.0 | 0.00 | 0.00 | 0.00 | 86 | 1012.5 |
| 20260504130739 | 53 | 207 | 3.0 | 14.0 | 0.00 | 0.00 | 0.00 | 87 | 1011.8 |
| 20260504130239 | 53 | 315 | 3.0 | 14.0 | 0.00 | 0.00 | 0.00 | 87 | 1011.7 |
| 20260504120242 | 53 | 217 | 3.0 | 14.0 | 0.00 | 0.00 | 0.00 | 88 | 1011.2 |
| 20260504120238 | 53 | 230 | 4.0 | 14.0 | 0.00 | 0.00 | 0.00 | 88 | 1011.3 |
| 20260504110236 | 53 | 224 | 3.0 | 10.0 | 0.00 | 0.00 | 0.00 | 88 | 1010.8 |
| 20260504100238 | 53 | 233 | 3.0 | 12.0 | 0.00 | 0.00 | 0.00 | 88 | 1010.3 |
| 20260504100233 | 53 | 232 | 4.0 | 13.0 | 0.00 | 0.00 | 0.00 | 89 | 1010.4 |
| 20260504081732 | 53 | 279 | 4.0 | 13.0 | 0.00 | 0.00 | 0.00 | 87 | 1010.0 |
| 20260504081234 | 54 | 275 | 4.0 | 12.0 | 0.00 | 0.00 | 0.00 | 87 | 1009.9 |
| 20260504080739 | 54 | 254 | 4.0 | 12.0 | 0.00 | 0.00 | 0.00 | 86 | 1009.9 |
| 20260504080733 | 54 | 271 | 4.0 | 12.0 | 0.00 | 0.00 | 0.00 | 86 | 1009.9 |
| 20260504080233 | 54 | 239 | 4.0 | 12.0 | 0.00 | 0.00 | 0.00 | 86 | 1010.0 |
| 20260504060230 | 58 | 250 | 4.0 | 10.0 | 0.00 | 0.00 | 0.00 | 77 | 1009.2 |
| 20260504050727 | 62 | 226 | 3.0 | 12.0 | 0.00 | 0.00 | 0.00 | 68 | 1008.7 |
| 20260504050225 | 63 | 279 | 3.0 | 12.0 | 0.00 | 0.00 | 0.00 | 67 | 1008.6 |
| 20260504045729 | 64 | 231 | 3.0 | 9.0 | 0.00 | 0.00 | 0.00 | 64 | 1008.4 |
| 20260504045725 | 63 | 246 | 3.0 | 12.0 | 0.00 | 0.00 | 0.00 | 66 | 1008.4 |
| 20260504044726 | 65 | 251 | 3.0 | 8.0 | 0.00 | 0.00 | 0.00 | 63 | 1008.3 |
| 20260504044227 | 66 | 238 | 3.0 | 8.0 | 0.00 | 0.00 | 0.00 | 61 | 1008.2 |
| 20260504043725 | 67 | 309 | 3.0 | 8.0 | 0.00 | 0.00 | 0.00 | 59 | 1008.1 |
| 20260504043223 | 68 | 234 | 2.0 | 7.0 | 0.00 | 0.00 | 0.00 | 56 | 1008.0 |
| 20260504042723 | 69 | 240 | 1.0 | 4.0 | 0.00 | 0.00 | 0.00 | 55 | 1007.9 |
| 20260504042223 | 70 | 327 | 2.0 | 8.0 | 0.00 | 0.00 | 0.00 | 53 | 1007.8 |
| 20260504041722 | 71 | 272 | 2.0 | 8.0 | 0.00 | 0.00 | 0.00 | 51 | 1007.7 |
| 20260504041223 | 71 | 226 | 2.0 | 9.0 | 0.00 | 0.00 | 0.00 | 50 | 1007.6 |
| 20260504040723 | 72 | 288 | 2.0 | 9.0 | 0.00 | 0.00 | 0.00 | 49 | 1007.5 |
| 20260504040222 | 73 | 259 | 2.0 | 7.0 | 0.00 | 0.00 | 0.00 | 48 | 1007.4 |
| 20260504035723 | 73 | 266 | 2.0 | 5.0 | 0.00 | 0.00 | 0.00 | 47 | 1007.4 |
| 20260504035222 | 74 | 281 | 2.0 | 5.0 | 0.00 | 0.00 | 0.00 | 46 | 1007.4 |
| 20260504034728 | 74 | 239 | 2.0 | 9.0 | 0.00 | 0.00 | 0.00 | 44 | 1007.3 |
| 20260504034723 | 74 | 262 | 2.0 | 9.0 | 0.00 | 0.00 | 0.00 | 44 | 1007.3 |
| 20260504033722 | 75 | 214 | 2.0 | 9.0 | 0.00 | 0.00 | 0.00 | 43 | 1007.3 |
| 20260504033222 | 75 | 267 | 1.0 | 6.0 | 0.00 | 0.00 | 0.00 | 43 | 1007.3 |
| 20260504032724 | 75 | 258 | 1.0 | 3.0 | 0.00 | 0.00 | 0.00 | 42 | 1007.2 |
| 20260504032222 | 75 | 272 | 0.0 | 2.0 | 0.00 | 0.00 | 0.00 | 42 | 1007.0 |
| 20260504031722 | 76 | 240 | 1.0 | 6.0 | 0.00 | 0.00 | 0.00 | 41 | 1007.1 |
| 20260504031229 | 78 | 281 | 1.0 | 5.0 | 0.00 | 0.00 | 0.00 | 39 | 1007.0 |
| 20260504031223 | 76 | 265 | 1.0 | 6.0 | 0.00 | 0.00 | 0.00 | 40 | 1007.0 |
| 20260504030722 | 77 | 254 | 1.0 | 6.0 | 0.00 | 0.00 | 0.00 | 40 | 1007.0 |